Location: Newark
(44.3290°N, 23.7757°E)
Time: 05:25:27
(UTC+00:00)

N. Korean satellite - Visible Passes

Search period start: 27 January 2022 00:00
Search period end: 06 February 2022 00:00
Orbit: 447 x 490 km, 97.3° (Epoch: 26 January)

Date Brightness Start Highest point End Pass type
(mag) Time Alt. Az. Time Alt. Az. Time Alt. Az.
27 Jan 6.4 03:44:26 10° NNE 03:48:06 90° W 03:48:42 61° SSW visible
27 Jan 9.9 15:54:22 10° WSW 15:56:14 14° W 15:58:06 10° WNW visible
28 Jan 8.0 03:15:25 10° NNE 03:18:49 37° E 03:19:37 33° SE visible
28 Jan 8.2 04:49:24 10° NNW 04:51:39 16° WNW 04:53:41 11° W visible
29 Jan 9.4 02:46:57 10° NE 02:49:25 17° E 02:50:35 15° ESE visible
29 Jan 7.2 04:19:22 10° N 04:22:39 32° WNW 04:24:39 19° WSW visible
30 Jan 6.4 03:49:51 10° N 03:53:29 76° WNW 03:55:39 23° SSW visible
30 Jan 10.0 16:00:14 10° WSW 16:01:39 12° W 16:03:03 10° WNW visible
31 Jan 7.7 03:20:42 10° NNE 03:24:12 43° E 03:26:42 17° SSE visible
31 Jan 8.3 04:55:01 10° NNW 04:56:57 14° WNW 04:58:52 10° W visible
01 Feb 9.2 02:52:03 10° NE 02:54:46 20° E 02:57:27 10° SE visible
01 Feb 7.4 04:24:45 10° N 04:27:54 28° WNW 04:31:02 10° SW visible
02 Feb 6.4 03:55:07 10° N 03:58:44 65° WNW 04:02:17 10° SSW visible
02 Feb 10.4 16:06:18 10° W 16:06:55 10° W 16:07:32 10° W visible
03 Feb 7.4 03:25:52 10° NNE 03:29:25 51° E 03:32:55 10° S visible
03 Feb 8.5 05:00:36 10° NW 05:02:06 12° WNW 05:03:34 10° W visible
04 Feb 9.0 02:57:03 10° NE 02:59:57 22° E 03:02:49 10° SSE visible
04 Feb 7.6 04:30:02 10° NNW 04:33:02 25° WNW 04:35:59 10° SW visible
05 Feb 10.0 02:29:59 10° E 02:30:21 10° E 02:30:43 10° E visible
05 Feb 6.6 04:00:17 10° N 04:03:50 55° WNW 04:07:20 10° SSW visible
